Location: McFarlands Corners
(41.4117°N, 81.3382°W)
Time: 03:13:43
(UTC+00:00)

Transit 4A - Pass Details

Date: 16 February 2026
Orbit: 863 x 978 km, 66.8° (Epoch: 13 March)

Event Time Altitude Azimuth Distance (km) Brightness Sun altitude
Rises 17:47:29 0° 333° (NNW) 3,604 10.5 36.4°
Reaches altitude 10° 17:50:05 10° 338° (NNW) 2,673 10.0 36.4°
Maximum altitude 17:56:11 53° 55° (NE) 1,174 8.7 36.3°
Drops below altitude 10° 18:02:22 10° 131° (SE) 2,713 10.9 36.2°
Sets 18:05:01 0° 136° (SE) 3,662 11.5 36.1°
